Year,Month,Day,Hour,Minute,Value (Times are PST for temperature in C)
2015,01,29,00,00,3.60
2015,01,29,00,01,3.60
2015,01,29,00,02,3.60
2015,01,29,00,03,3.60
2015,01,29,00,04,3.60
2015,01,29,00,05,3.60
2015,01,29,00,06,3.60
2015,01,29,00,07,3.60
2015,01,29,00,08,3.60
2015,01,29,00,09,3.60
2015,01,29,00,10,3.60
2015,01,29,00,11,3.60
2015,01,29,00,12,3.60
2015,01,29,00,13,3.50
2015,01,29,00,14,3.50
2015,01,29,00,15,3.50
2015,01,29,00,16,3.50
2015,01,29,00,17,3.50
2015,01,29,00,18,3.40
2015,01,29,00,19,3.40
2015,01,29,00,20,3.40
2015,01,29,00,21,3.40
2015,01,29,00,22,3.40
2015,01,29,00,23,3.40
2015,01,29,00,24,3.40
2015,01,29,00,25,3.40
2015,01,29,00,26,3.30
2015,01,29,00,27,3.30
2015,01,29,00,28,3.30
2015,01,29,00,29,3.30
2015,01,29,00,30,3.30
2015,01,29,00,31,3.30
2015,01,29,00,32,3.30
2015,01,29,00,33,3.30
2015,01,29,00,34,3.30
2015,01,29,00,35,3.30
2015,01,29,00,36,3.30
2015,01,29,00,37,3.20
2015,01,29,00,38,3.20
2015,01,29,00,39,3.20
2015,01,29,00,40,3.20
2015,01,29,00,41,3.20
2015,01,29,00,42,3.20
2015,01,29,00,43,3.20
2015,01,29,00,44,3.10
2015,01,29,00,45,3.10
2015,01,29,00,46,3.10
2015,01,29,00,47,3.10
2015,01,29,00,48,3.10
2015,01,29,00,49,3.10
2015,01,29,00,50,3.10
2015,01,29,00,51,3.10
2015,01,29,00,52,3.10
2015,01,29,00,53,3.10
2015,01,29,00,54,3.10
2015,01,29,00,55,3.20
2015,01,29,00,56,3.20
2015,01,29,00,57,3.20
2015,01,29,00,58,3.20
2015,01,29,00,59,3.20
2015,01,29,01,00,3.10
2015,01,29,01,01,3.10
2015,01,29,01,02,3.10
2015,01,29,01,03,3.00
2015,01,29,01,04,3.00
2015,01,29,01,05,2.90
2015,01,29,01,06,2.90
2015,01,29,01,07,2.90
2015,01,29,01,08,2.90
2015,01,29,01,09,2.90
2015,01,29,01,10,2.90
2015,01,29,01,11,2.90
2015,01,29,01,12,2.90
2015,01,29,01,13,2.90
2015,01,29,01,14,3.00
2015,01,29,01,15,3.00
2015,01,29,01,16,3.00
2015,01,29,01,17,3.10
2015,01,29,01,18,3.00
2015,01,29,01,19,3.10
2015,01,29,01,20,3.00
2015,01,29,01,21,3.10
2015,01,29,01,22,3.10
2015,01,29,01,23,3.10
2015,01,29,01,24,3.10
2015,01,29,01,25,3.10
2015,01,29,01,26,3.10
2015,01,29,01,27,3.10
2015,01,29,01,28,3.10
2015,01,29,01,29,3.10
2015,01,29,01,30,3.10
2015,01,29,01,31,3.10
2015,01,29,01,32,3.10
2015,01,29,01,33,3.10
2015,01,29,01,34,3.10
2015,01,29,01,35,3.10
2015,01,29,01,36,3.10
2015,01,29,01,37,3.10
2015,01,29,01,38,3.10
2015,01,29,01,39,3.10
2015,01,29,01,40,3.10
2015,01,29,01,41,3.10
2015,01,29,01,42,3.10
2015,01,29,01,43,3.20
2015,01,29,01,44,3.20
2015,01,29,01,45,3.20
2015,01,29,01,46,3.20
2015,01,29,01,47,3.10
2015,01,29,01,48,3.10
2015,01,29,01,49,3.20
2015,01,29,01,50,3.20
2015,01,29,01,51,3.20
2015,01,29,01,52,3.10
2015,01,29,01,53,3.20
2015,01,29,01,54,3.10
2015,01,29,01,55,3.10
2015,01,29,01,56,3.10
2015,01,29,01,57,3.10
2015,01,29,01,58,3.10
2015,01,29,01,59,3.10
2015,01,29,02,00,3.10
2015,01,29,02,01,3.20
2015,01,29,02,02,3.20
2015,01,29,02,03,3.20
2015,01,29,02,04,3.10
2015,01,29,02,05,3.10
2015,01,29,02,06,3.20
2015,01,29,02,07,3.10
2015,01,29,02,08,3.10
2015,01,29,02,09,3.20
2015,01,29,02,10,3.20
2015,01,29,02,11,3.20
2015,01,29,02,12,3.20
2015,01,29,02,13,3.20
2015,01,29,02,14,3.20
2015,01,29,02,15,3.20
2015,01,29,02,16,3.20
2015,01,29,02,17,3.20
2015,01,29,02,18,3.20
2015,01,29,02,19,3.20
2015,01,29,02,20,3.20
2015,01,29,02,21,3.20
2015,01,29,02,22,3.20
2015,01,29,02,23,3.20
2015,01,29,02,24,3.20
2015,01,29,02,25,3.20
2015,01,29,02,26,3.20
2015,01,29,02,27,3.20
2015,01,29,02,28,3.30
2015,01,29,02,29,3.30
2015,01,29,02,30,3.30
2015,01,29,02,31,3.30
2015,01,29,02,32,3.30
2015,01,29,02,33,3.30
2015,01,29,02,34,3.30
2015,01,29,02,35,3.30
2015,01,29,02,36,3.30
2015,01,29,02,37,3.30
2015,01,29,02,38,3.30
2015,01,29,02,39,3.30
2015,01,29,02,40,3.30
2015,01,29,02,41,3.30
2015,01,29,02,42,3.30
2015,01,29,02,43,3.30
2015,01,29,02,44,3.30
2015,01,29,02,45,3.30
2015,01,29,02,46,3.30
2015,01,29,02,47,3.30
2015,01,29,02,48,3.30
2015,01,29,02,49,3.30
2015,01,29,02,50,3.30
2015,01,29,02,51,3.30
2015,01,29,02,52,3.30
2015,01,29,02,53,3.30
2015,01,29,02,54,3.30
2015,01,29,02,55,3.30
2015,01,29,02,56,3.30
2015,01,29,02,57,3.30
2015,01,29,02,58,3.30
2015,01,29,02,59,3.30
2015,01,29,03,00,3.40
2015,01,29,03,01,3.40
2015,01,29,03,02,3.40
2015,01,29,03,03,3.40
2015,01,29,03,04,3.40
2015,01,29,03,05,3.40
2015,01,29,03,06,3.40
2015,01,29,03,07,3.40
2015,01,29,03,08,3.40
2015,01,29,03,09,3.40
2015,01,29,03,10,3.40
2015,01,29,03,11,3.40
2015,01,29,03,12,3.40
2015,01,29,03,13,3.40
2015,01,29,03,14,3.50
2015,01,29,03,15,3.50
2015,01,29,03,16,3.50
2015,01,29,03,17,3.50
2015,01,29,03,18,3.50
2015,01,29,03,19,3.50
2015,01,29,03,20,3.60
2015,01,29,03,21,3.60
2015,01,29,03,22,3.60
2015,01,29,03,23,3.60
2015,01,29,03,24,3.60
2015,01,29,03,25,3.60
2015,01,29,03,26,3.60
2015,01,29,03,27,3.60
2015,01,29,03,28,3.60
2015,01,29,03,29,3.60
2015,01,29,03,30,3.60
2015,01,29,03,31,3.60
2015,01,29,03,32,3.60
2015,01,29,03,33,3.60
2015,01,29,03,34,3.60
2015,01,29,03,35,3.60
2015,01,29,03,36,3.60
2015,01,29,03,37,3.60
2015,01,29,03,38,3.60
2015,01,29,03,39,3.60
2015,01,29,03,40,3.60
2015,01,29,03,41,3.60
2015,01,29,03,42,3.60
2015,01,29,03,43,3.60
2015,01,29,03,44,3.60
2015,01,29,03,45,3.60
2015,01,29,03,46,3.50
2015,01,29,03,47,3.50
2015,01,29,03,48,3.50
2015,01,29,03,49,3.50
2015,01,29,03,50,3.40
2015,01,29,03,51,3.40
2015,01,29,03,52,3.40
2015,01,29,03,53,3.40
2015,01,29,03,54,3.40
2015,01,29,03,55,3.40
2015,01,29,03,56,3.40
2015,01,29,03,57,3.40
2015,01,29,03,58,3.40
2015,01,29,03,59,3.40
2015,01,29,04,00,3.40
2015,01,29,04,01,3.30
2015,01,29,04,02,3.30
2015,01,29,04,03,3.30
2015,01,29,04,04,3.30
2015,01,29,04,05,3.30
2015,01,29,04,06,3.30
2015,01,29,04,07,3.30
2015,01,29,04,08,3.30
2015,01,29,04,09,3.30
2015,01,29,04,10,3.30
2015,01,29,04,11,3.30
2015,01,29,04,12,3.30
2015,01,29,04,13,3.30
2015,01,29,04,14,3.30
2015,01,29,04,15,3.30
2015,01,29,04,16,3.30
2015,01,29,04,17,3.30
2015,01,29,04,18,3.30
2015,01,29,04,19,3.30
2015,01,29,04,20,3.30
2015,01,29,04,21,3.30
2015,01,29,04,22,3.30
2015,01,29,04,23,3.30
2015,01,29,04,24,3.30
2015,01,29,04,25,3.30
2015,01,29,04,26,3.30
2015,01,29,04,27,3.30
2015,01,29,04,28,3.30
2015,01,29,04,29,3.30
2015,01,29,04,30,3.30
2015,01,29,04,31,3.30
2015,01,29,04,32,3.30
2015,01,29,04,33,3.30
2015,01,29,04,34,3.30
2015,01,29,04,35,3.20
2015,01,29,04,36,3.20
2015,01,29,04,37,3.20
2015,01,29,04,38,3.20
2015,01,29,04,39,3.20
2015,01,29,04,40,3.20
2015,01,29,04,41,3.20
2015,01,29,04,42,3.20
2015,01,29,04,43,3.10
2015,01,29,04,44,3.10
2015,01,29,04,45,3.10
2015,01,29,04,46,3.10
2015,01,29,04,47,3.10
2015,01,29,04,48,3.10
2015,01,29,04,49,3.10
2015,01,29,04,50,3.00
2015,01,29,04,51,3.00
2015,01,29,04,52,3.00
2015,01,29,04,53,3.00
2015,01,29,04,54,3.00
2015,01,29,04,55,2.90
2015,01,29,04,56,2.90
2015,01,29,04,57,2.90
2015,01,29,04,58,2.90
2015,01,29,04,59,2.90
2015,01,29,05,00,2.90
2015,01,29,05,01,2.90
2015,01,29,05,02,2.90
2015,01,29,05,03,2.90
2015,01,29,05,04,2.90
2015,01,29,05,05,3.00
2015,01,29,05,06,3.00
2015,01,29,05,07,3.00
2015,01,29,05,08,3.00
2015,01,29,05,09,3.00
2015,01,29,05,10,3.00
2015,01,29,05,11,3.00
2015,01,29,05,12,3.00
2015,01,29,05,13,3.00
2015,01,29,05,14,3.00
2015,01,29,05,15,3.00
2015,01,29,05,16,3.00
2015,01,29,05,17,3.00
2015,01,29,05,18,3.00
2015,01,29,05,19,3.00
2015,01,29,05,20,3.00
2015,01,29,05,21,3.00
2015,01,29,05,22,3.00
2015,01,29,05,23,3.00
2015,01,29,05,24,3.00
2015,01,29,05,25,3.00
2015,01,29,05,26,3.10
2015,01,29,05,27,3.10
2015,01,29,05,28,3.10
2015,01,29,05,29,3.10
2015,01,29,05,30,3.10
2015,01,29,05,31,3.10
2015,01,29,05,32,3.10
2015,01,29,05,33,3.10
2015,01,29,05,34,3.10
2015,01,29,05,35,3.10
2015,01,29,05,36,3.10
2015,01,29,05,37,3.10
2015,01,29,05,38,3.10
2015,01,29,05,39,3.10
2015,01,29,05,40,3.10
2015,01,29,05,41,3.20
2015,01,29,05,42,3.20
2015,01,29,05,43,3.20
2015,01,29,05,44,3.20
2015,01,29,05,45,3.20
2015,01,29,05,46,3.20
2015,01,29,05,47,3.20
2015,01,29,05,48,3.20
2015,01,29,05,49,3.20
2015,01,29,05,50,3.20
2015,01,29,05,51,3.20
2015,01,29,05,52,3.20
2015,01,29,05,53,3.20
2015,01,29,05,54,3.20
2015,01,29,05,55,3.20
2015,01,29,05,56,3.20
2015,01,29,05,57,3.20
2015,01,29,05,58,3.10
2015,01,29,05,59,3.10
2015,01,29,06,00,3.10
2015,01,29,06,01,3.10
2015,01,29,06,02,3.10
2015,01,29,06,03,3.10
2015,01,29,06,04,3.10
2015,01,29,06,05,3.10
2015,01,29,06,06,3.10
2015,01,29,06,07,3.10
2015,01,29,06,08,3.10
2015,01,29,06,09,3.10
2015,01,29,06,10,3.10
2015,01,29,06,11,3.20
2015,01,29,06,12,3.20
2015,01,29,06,13,3.10
2015,01,29,06,14,3.10
2015,01,29,06,15,3.10
2015,01,29,06,16,3.10
2015,01,29,06,17,3.10
2015,01,29,06,18,3.20
2015,01,29,06,19,3.20
2015,01,29,06,20,3.20
2015,01,29,06,21,3.20
2015,01,29,06,22,3.20
2015,01,29,06,23,3.20
2015,01,29,06,24,3.20
2015,01,29,06,25,3.10
2015,01,29,06,26,3.10
2015,01,29,06,27,3.10
2015,01,29,06,28,3.10
2015,01,29,06,29,3.10
2015,01,29,06,30,3.10
2015,01,29,06,31,3.10
2015,01,29,06,32,3.10
2015,01,29,06,33,3.10
2015,01,29,06,34,3.10
2015,01,29,06,35,3.10
2015,01,29,06,36,3.10
2015,01,29,06,37,3.10
2015,01,29,06,38,3.10
2015,01,29,06,39,3.10
2015,01,29,06,40,3.10
2015,01,29,06,41,3.10
2015,01,29,06,42,3.10
2015,01,29,06,43,3.10
2015,01,29,06,44,3.10
2015,01,29,06,45,3.10
2015,01,29,06,46,3.10
2015,01,29,06,47,3.10
2015,01,29,06,48,3.20
2015,01,29,06,49,3.20
2015,01,29,06,50,3.20
2015,01,29,06,51,3.20
2015,01,29,06,52,3.20
2015,01,29,06,53,3.20
2015,01,29,06,54,3.20
2015,01,29,06,55,3.30
2015,01,29,06,56,3.30
2015,01,29,06,57,3.30
2015,01,29,06,58,3.30
2015,01,29,06,59,3.30
2015,01,29,07,00,3.30
2015,01,29,07,01,3.30
2015,01,29,07,02,3.30
2015,01,29,07,03,3.30
2015,01,29,07,04,3.30
2015,01,29,07,05,3.30
2015,01,29,07,06,3.30
2015,01,29,07,07,3.30
2015,01,29,07,08,3.40
2015,01,29,07,09,3.40
2015,01,29,07,10,3.40
2015,01,29,07,11,3.50
2015,01,29,07,12,3.50
2015,01,29,07,13,3.50
2015,01,29,07,14,3.50
2015,01,29,07,15,3.50
2015,01,29,07,16,3.50
2015,01,29,07,17,3.50
2015,01,29,07,18,3.50
2015,01,29,07,19,3.50
2015,01,29,07,20,3.50
2015,01,29,07,21,3.40
2015,01,29,07,22,3.40
2015,01,29,07,23,3.40
2015,01,29,07,24,3.40
2015,01,29,07,25,3.40
2015,01,29,07,26,3.40
2015,01,29,07,27,3.40
2015,01,29,07,28,3.40
2015,01,29,07,29,3.40
2015,01,29,07,30,3.40
2015,01,29,07,31,3.40
2015,01,29,07,32,3.40
2015,01,29,07,33,3.40
2015,01,29,07,34,3.40
2015,01,29,07,35,3.40
2015,01,29,07,36,3.40
2015,01,29,07,37,3.40
2015,01,29,07,38,3.50
2015,01,29,07,39,3.50
2015,01,29,07,40,3.50
2015,01,29,07,41,3.50
2015,01,29,07,42,3.50
2015,01,29,07,43,3.50
2015,01,29,07,44,3.50
2015,01,29,07,45,3.50
2015,01,29,07,46,3.50
2015,01,29,07,47,3.50
2015,01,29,07,48,3.50
2015,01,29,07,49,3.50
2015,01,29,07,50,3.50
2015,01,29,07,51,3.50
2015,01,29,07,52,3.50
2015,01,29,07,53,3.50
2015,01,29,07,54,3.60
2015,01,29,07,55,3.60
2015,01,29,07,56,3.60
2015,01,29,07,57,3.60
2015,01,29,07,58,3.60
2015,01,29,07,59,3.60
2015,01,29,08,00,3.60
2015,01,29,08,01,3.60
2015,01,29,08,02,3.70
2015,01,29,08,03,3.70
2015,01,29,08,04,3.70
2015,01,29,08,05,3.70
2015,01,29,08,06,3.70
2015,01,29,08,07,3.70
2015,01,29,08,08,3.70
2015,01,29,08,09,3.70
2015,01,29,08,10,3.70
2015,01,29,08,11,3.80
2015,01,29,08,12,3.80
2015,01,29,08,13,3.80
2015,01,29,08,14,3.80
2015,01,29,08,15,3.80
2015,01,29,08,16,3.80
2015,01,29,08,17,3.80
2015,01,29,08,18,3.80
2015,01,29,08,19,3.80
2015,01,29,08,20,3.80
2015,01,29,08,21,3.80
2015,01,29,08,22,3.90
2015,01,29,08,23,3.90
2015,01,29,08,24,3.90
2015,01,29,08,25,3.90
2015,01,29,08,26,3.90
2015,01,29,08,27,4.00
2015,01,29,08,28,4.00
2015,01,29,08,29,4.00
2015,01,29,08,30,4.00
2015,01,29,08,31,4.10
2015,01,29,08,32,4.10
2015,01,29,08,33,4.10
2015,01,29,08,34,4.10
2015,01,29,08,35,4.10
2015,01,29,08,36,4.10
2015,01,29,08,37,4.10
2015,01,29,08,38,4.10
2015,01,29,08,39,4.10
2015,01,29,08,40,4.10
2015,01,29,08,41,4.20
2015,01,29,08,42,4.20
2015,01,29,08,43,4.20
2015,01,29,08,44,4.20
2015,01,29,08,45,4.20
2015,01,29,08,46,4.20
2015,01,29,08,47,4.30
2015,01,29,08,48,4.30
2015,01,29,08,49,4.30
2015,01,29,08,50,4.30
2015,01,29,08,51,4.30
2015,01,29,08,52,4.30
2015,01,29,08,53,4.40
2015,01,29,08,54,4.40
2015,01,29,08,55,4.40
2015,01,29,08,56,4.40
2015,01,29,08,57,4.40
2015,01,29,08,58,4.40
2015,01,29,08,59,4.40
2015,01,29,09,00,4.50
2015,01,29,09,01,4.50
2015,01,29,09,02,4.50
2015,01,29,09,03,4.60
2015,01,29,09,04,4.60
2015,01,29,09,05,4.60
2015,01,29,09,06,4.60
2015,01,29,09,07,4.60
2015,01,29,09,08,4.70
2015,01,29,09,09,4.70
2015,01,29,09,10,4.70
2015,01,29,09,11,4.70
2015,01,29,09,12,4.70
2015,01,29,09,13,4.80
2015,01,29,09,14,4.80
2015,01,29,09,15,4.80
2015,01,29,09,16,4.80
2015,01,29,09,17,4.90
2015,01,29,09,18,4.90
2015,01,29,09,19,4.90
2015,01,29,09,20,4.90
2015,01,29,09,21,5.00
2015,01,29,09,22,5.00
2015,01,29,09,23,5.00
2015,01,29,09,24,5.10
2015,01,29,09,25,5.10
2015,01,29,09,26,5.10
2015,01,29,09,27,5.10
2015,01,29,09,28,5.10
2015,01,29,09,29,5.10
2015,01,29,09,30,5.10
2015,01,29,09,31,5.20
2015,01,29,09,32,5.20
2015,01,29,09,33,5.20
2015,01,29,09,34,5.20
2015,01,29,09,35,5.20
2015,01,29,09,36,5.20
2015,01,29,09,37,5.30
2015,01,29,09,38,5.30
2015,01,29,09,39,5.30
2015,01,29,09,40,5.30
2015,01,29,09,41,5.40
2015,01,29,09,42,5.40
2015,01,29,09,43,5.40
2015,01,29,09,44,5.40
2015,01,29,09,45,5.50
2015,01,29,09,46,5.50
2015,01,29,09,47,5.50
2015,01,29,09,48,5.60
2015,01,29,09,49,5.60
2015,01,29,09,50,5.60
2015,01,29,09,51,5.60
2015,01,29,09,52,5.70
2015,01,29,09,53,5.70
2015,01,29,09,54,5.70
2015,01,29,09,55,5.70
2015,01,29,09,56,5.70
2015,01,29,09,57,5.70
2015,01,29,09,58,5.80
2015,01,29,09,59,5.80
2015,01,29,10,00,5.80
2015,01,29,10,01,5.80
2015,01,29,10,02,5.80
2015,01,29,10,03,5.80
2015,01,29,10,04,5.80
2015,01,29,10,05,5.80
2015,01,29,10,06,5.80
2015,01,29,10,07,5.80
2015,01,29,10,08,5.80
2015,01,29,10,09,5.80
2015,01,29,10,10,5.90
2015,01,29,10,11,5.90
2015,01,29,10,12,5.90
2015,01,29,10,13,5.90
2015,01,29,10,14,6.00
2015,01,29,10,15,6.00
2015,01,29,10,16,6.00
2015,01,29,10,17,6.00
2015,01,29,10,18,6.00
2015,01,29,10,19,6.00
2015,01,29,10,20,6.00
2015,01,29,10,21,6.00
2015,01,29,10,22,6.00
2015,01,29,10,23,6.00
2015,01,29,10,24,6.00
2015,01,29,10,25,6.10
2015,01,29,10,26,6.10
2015,01,29,10,27,6.00
2015,01,29,10,28,6.00
2015,01,29,10,29,6.00
2015,01,29,10,30,6.00
2015,01,29,10,31,5.90
2015,01,29,10,32,5.90
2015,01,29,10,33,6.00
2015,01,29,10,34,6.00
2015,01,29,10,35,6.00
2015,01,29,10,36,6.10
2015,01,29,10,37,6.10
2015,01,29,10,38,6.10
2015,01,29,10,39,6.20
2015,01,29,10,40,6.20
2015,01,29,10,41,6.30
2015,01,29,10,42,6.30
2015,01,29,10,43,6.30
2015,01,29,10,44,6.40
2015,01,29,10,45,6.40
2015,01,29,10,46,6.40
2015,01,29,10,47,6.40
2015,01,29,10,48,6.40
2015,01,29,10,49,6.40
2015,01,29,10,50,6.40
2015,01,29,10,51,6.50
2015,01,29,10,52,6.50
2015,01,29,10,53,6.50
2015,01,29,10,54,6.60
2015,01,29,10,55,6.60
2015,01,29,10,56,6.60
2015,01,29,10,57,6.60
2015,01,29,10,58,6.70
2015,01,29,10,59,6.70
2015,01,29,11,00,6.70
2015,01,29,11,01,6.80
2015,01,29,11,02,6.80
2015,01,29,11,03,6.80
2015,01,29,11,04,6.80
2015,01,29,11,05,6.80
2015,01,29,11,06,6.90
2015,01,29,11,07,6.90
2015,01,29,11,08,7.00
2015,01,29,11,09,7.00
2015,01,29,11,10,7.10
2015,01,29,11,11,7.10
2015,01,29,11,12,7.10
2015,01,29,11,13,7.20
2015,01,29,11,14,7.20
2015,01,29,11,15,7.20
2015,01,29,11,16,7.20
2015,01,29,11,17,7.20
2015,01,29,11,18,7.20
2015,01,29,11,19,7.30
2015,01,29,11,20,7.30
2015,01,29,11,21,7.40
2015,01,29,11,22,7.40
2015,01,29,11,23,7.50
2015,01,29,11,24,7.60
2015,01,29,11,25,7.60
2015,01,29,11,26,7.70
2015,01,29,11,27,7.80
2015,01,29,11,28,7.90
2015,01,29,11,29,8.00
2015,01,29,11,30,8.00
2015,01,29,11,31,8.10
2015,01,29,11,32,8.20
2015,01,29,11,33,8.20
2015,01,29,11,34,8.30
2015,01,29,11,35,8.30
2015,01,29,11,36,8.30
2015,01,29,11,37,8.40
2015,01,29,11,38,8.40
2015,01,29,11,39,8.50
2015,01,29,11,40,8.50
2015,01,29,11,41,8.50
2015,01,29,11,42,8.40
2015,01,29,11,43,8.40
2015,01,29,11,44,8.40
2015,01,29,11,45,8.50
2015,01,29,11,46,8.50
2015,01,29,11,47,8.60
2015,01,29,11,48,8.60
2015,01,29,11,49,8.60
2015,01,29,11,50,8.70
2015,01,29,11,51,8.70
2015,01,29,11,52,8.70
2015,01,29,11,53,8.80
2015,01,29,11,54,8.80
2015,01,29,11,55,8.90
2015,01,29,11,56,9.00
2015,01,29,11,57,9.00
2015,01,29,11,58,9.10
2015,01,29,11,59,9.10
2015,01,29,12,00,9.10
2015,01,29,12,01,9.10
2015,01,29,12,02,9.00
2015,01,29,12,03,8.90
2015,01,29,12,04,8.80
2015,01,29,12,05,8.70
2015,01,29,12,06,8.70
2015,01,29,12,07,8.70
2015,01,29,12,08,8.70
2015,01,29,12,09,8.70
2015,01,29,12,10,8.60
2015,01,29,12,11,8.60
2015,01,29,12,12,8.60
2015,01,29,12,13,8.60
2015,01,29,12,14,8.60
2015,01,29,12,15,8.60
2015,01,29,12,16,8.70
2015,01,29,12,17,8.70
2015,01,29,12,18,8.80
2015,01,29,12,19,8.80
2015,01,29,12,20,8.90
2015,01,29,12,21,8.90
2015,01,29,12,22,8.90
2015,01,29,12,23,8.90
2015,01,29,12,24,8.90
2015,01,29,12,25,9.00
2015,01,29,12,26,9.00
2015,01,29,12,27,9.00
2015,01,29,12,28,9.10
2015,01,29,12,29,9.10
2015,01,29,12,30,9.10
2015,01,29,12,31,9.10
2015,01,29,12,32,9.10
2015,01,29,12,33,9.10
2015,01,29,12,34,9.10
2015,01,29,12,35,9.10
2015,01,29,12,36,9.10
2015,01,29,12,37,9.10
2015,01,29,12,38,9.10
2015,01,29,12,39,9.10
2015,01,29,12,40,9.10
2015,01,29,12,41,9.10
2015,01,29,12,42,9.10
2015,01,29,12,43,9.20
2015,01,29,12,44,9.30
2015,01,29,12,45,9.40
2015,01,29,12,46,9.50
2015,01,29,12,47,9.50
2015,01,29,12,48,9.60
2015,01,29,12,49,9.70
2015,01,29,12,50,9.80
2015,01,29,12,51,9.90
2015,01,29,12,52,10.00
2015,01,29,12,53,10.10
2015,01,29,12,54,10.10
2015,01,29,12,55,10.20
2015,01,29,12,56,10.20
2015,01,29,12,57,10.20
2015,01,29,12,58,10.20
2015,01,29,12,59,10.30
2015,01,29,13,00,10.30
2015,01,29,13,01,10.30
2015,01,29,13,02,10.30
2015,01,29,13,03,10.30
2015,01,29,13,04,10.30
2015,01,29,13,05,10.30
2015,01,29,13,06,10.30
2015,01,29,13,07,10.30
2015,01,29,13,08,10.30
2015,01,29,13,09,10.30
2015,01,29,13,10,10.20
2015,01,29,13,11,10.20
2015,01,29,13,12,10.20
2015,01,29,13,13,10.20
2015,01,29,13,14,10.30
2015,01,29,13,15,10.40
2015,01,29,13,16,10.40
2015,01,29,13,17,10.50
2015,01,29,13,18,10.50
2015,01,29,13,19,10.60
2015,01,29,13,20,10.60
2015,01,29,13,21,10.70
2015,01,29,13,22,10.70
2015,01,29,13,23,10.60
2015,01,29,13,24,10.60
2015,01,29,13,25,10.60
2015,01,29,13,26,10.50
2015,01,29,13,27,10.50
2015,01,29,13,28,10.50
2015,01,29,13,29,10.50
2015,01,29,13,30,10.50
2015,01,29,13,31,10.50
2015,01,29,13,32,10.60
2015,01,29,13,33,10.70
2015,01,29,13,34,10.70
2015,01,29,13,35,10.80
2015,01,29,13,36,10.80
2015,01,29,13,37,10.80
2015,01,29,13,38,10.80
2015,01,29,13,39,10.80
2015,01,29,13,40,10.80
2015,01,29,13,41,10.70
2015,01,29,13,42,10.70
2015,01,29,13,43,10.70
2015,01,29,13,44,10.70
2015,01,29,13,45,10.80
2015,01,29,13,46,10.80
2015,01,29,13,47,10.90
2015,01,29,13,48,11.00
2015,01,29,13,49,11.10
2015,01,29,13,50,11.10
2015,01,29,13,51,11.10
2015,01,29,13,52,11.10
2015,01,29,13,53,11.00
2015,01,29,13,54,11.00
2015,01,29,13,55,10.90
2015,01,29,13,56,10.90
2015,01,29,13,57,10.90
2015,01,29,13,58,10.80
2015,01,29,13,59,10.80
2015,01,29,14,00,10.80
2015,01,29,14,01,10.70
2015,01,29,14,02,10.70
2015,01,29,14,03,10.70
2015,01,29,14,04,10.70
2015,01,29,14,05,10.70
2015,01,29,14,06,10.60
2015,01,29,14,07,10.60
2015,01,29,14,08,10.60
2015,01,29,14,09,10.50
2015,01,29,14,10,10.50
2015,01,29,14,11,10.40
2015,01,29,14,12,10.40
2015,01,29,14,13,10.30
2015,01,29,14,14,10.30
2015,01,29,14,15,10.30
2015,01,29,14,16,10.30
2015,01,29,14,17,10.40
2015,01,29,14,18,10.40
2015,01,29,14,19,10.40
2015,01,29,14,20,10.50
2015,01,29,14,21,10.40
2015,01,29,14,22,10.40
2015,01,29,14,23,10.40
2015,01,29,14,24,10.40
2015,01,29,14,25,10.40
2015,01,29,14,26,10.40
2015,01,29,14,27,10.40
2015,01,29,14,28,10.30
2015,01,29,14,29,10.30
2015,01,29,14,30,10.30
2015,01,29,14,31,10.30
2015,01,29,14,32,10.30
2015,01,29,14,33,10.30
2015,01,29,14,34,10.30
2015,01,29,14,35,10.30
2015,01,29,14,36,10.30
2015,01,29,14,37,10.30
2015,01,29,14,38,10.30
2015,01,29,14,39,10.30
2015,01,29,14,40,10.40
2015,01,29,14,41,10.40
2015,01,29,14,42,10.40
2015,01,29,14,43,10.40
2015,01,29,14,44,10.40
2015,01,29,14,45,10.40
2015,01,29,14,46,10.40
2015,01,29,14,47,10.40
2015,01,29,14,48,10.40
2015,01,29,14,49,10.40
2015,01,29,14,50,10.40
2015,01,29,14,51,10.40
2015,01,29,14,52,10.40
2015,01,29,14,53,10.30
2015,01,29,14,54,10.30
2015,01,29,14,55,10.30
2015,01,29,14,56,10.30
2015,01,29,14,57,10.30
2015,01,29,14,58,10.40
2015,01,29,14,59,10.40
2015,01,29,15,00,10.40
2015,01,29,15,01,10.40
2015,01,29,15,02,10.40
2015,01,29,15,03,10.50
2015,01,29,15,04,10.60
2015,01,29,15,05,10.60
2015,01,29,15,06,10.60
2015,01,29,15,07,10.60
2015,01,29,15,08,10.60
2015,01,29,15,09,10.50
2015,01,29,15,10,10.50
2015,01,29,15,11,10.50
2015,01,29,15,12,10.40
2015,01,29,15,13,10.50
2015,01,29,15,14,10.50
2015,01,29,15,15,10.60
2015,01,29,15,16,10.70
2015,01,29,15,17,10.70
2015,01,29,15,18,10.80
2015,01,29,15,19,10.90
2015,01,29,15,20,11.00
2015,01,29,15,21,11.00
2015,01,29,15,22,11.10
2015,01,29,15,23,11.00
2015,01,29,15,24,11.00
2015,01,29,15,25,10.90
2015,01,29,15,26,10.80
2015,01,29,15,27,10.80
2015,01,29,15,28,10.80
2015,01,29,15,29,10.80
2015,01,29,15,30,10.70
2015,01,29,15,31,10.70
2015,01,29,15,32,10.60
2015,01,29,15,33,10.60
2015,01,29,15,34,10.60
2015,01,29,15,35,10.60
2015,01,29,15,36,10.50
2015,01,29,15,37,10.50
2015,01,29,15,38,10.50
2015,01,29,15,39,10.50
2015,01,29,15,40,10.50
2015,01,29,15,41,10.50
2015,01,29,15,42,10.50
2015,01,29,15,43,10.50
2015,01,29,15,44,10.60
2015,01,29,15,45,10.50
2015,01,29,15,46,10.50
2015,01,29,15,47,10.40
2015,01,29,15,48,10.40
2015,01,29,15,49,10.40
2015,01,29,15,50,10.30
2015,01,29,15,51,10.30
2015,01,29,15,52,10.30
2015,01,29,15,53,10.20
2015,01,29,15,54,10.10
2015,01,29,15,55,10.10
2015,01,29,15,56,10.00
2015,01,29,15,57,10.00
2015,01,29,15,58,9.90
2015,01,29,15,59,9.80
2015,01,29,16,00,9.80
2015,01,29,16,01,9.80
2015,01,29,16,02,9.80
2015,01,29,16,03,9.70
2015,01,29,16,04,9.70
2015,01,29,16,05,9.60
2015,01,29,16,06,9.60
2015,01,29,16,07,9.60
2015,01,29,16,08,9.50
2015,01,29,16,09,9.50
2015,01,29,16,10,9.40
2015,01,29,16,11,9.40
2015,01,29,16,12,9.40
2015,01,29,16,13,9.30
2015,01,29,16,14,9.30
2015,01,29,16,15,9.30
2015,01,29,16,16,9.20
2015,01,29,16,17,9.20
2015,01,29,16,18,9.20
2015,01,29,16,19,9.20
2015,01,29,16,20,9.10
2015,01,29,16,21,9.10
2015,01,29,16,22,9.10
2015,01,29,16,23,9.00
2015,01,29,16,24,9.00
2015,01,29,16,25,8.90
2015,01,29,16,26,8.90
2015,01,29,16,27,8.80
2015,01,29,16,28,8.80
2015,01,29,16,29,8.80
2015,01,29,16,30,8.80
2015,01,29,16,31,8.70
2015,01,29,16,32,8.70
2015,01,29,16,33,8.70
2015,01,29,16,34,8.60
2015,01,29,16,35,8.60
2015,01,29,16,36,8.50
2015,01,29,16,37,8.50
2015,01,29,16,38,8.50
2015,01,29,16,39,8.40
2015,01,29,16,40,8.40
2015,01,29,16,41,8.30
2015,01,29,16,42,8.30
2015,01,29,16,43,8.30
2015,01,29,16,44,8.20
2015,01,29,16,45,8.20
2015,01,29,16,46,8.20
2015,01,29,16,47,8.10
2015,01,29,16,48,8.10
2015,01,29,16,49,8.10
2015,01,29,16,50,8.00
2015,01,29,16,51,8.00
2015,01,29,16,52,7.90
2015,01,29,16,53,7.90
2015,01,29,16,54,7.80
2015,01,29,16,55,7.80
2015,01,29,16,56,7.70
2015,01,29,16,57,7.70
2015,01,29,16,58,7.70
2015,01,29,16,59,7.60
2015,01,29,17,00,7.60
2015,01,29,17,01,7.50
2015,01,29,17,02,7.50
2015,01,29,17,03,7.40
2015,01,29,17,04,7.40
2015,01,29,17,05,7.40
2015,01,29,17,06,7.30
2015,01,29,17,07,7.30
2015,01,29,17,08,7.30
2015,01,29,17,09,7.20
2015,01,29,17,10,7.20
2015,01,29,17,11,7.20
2015,01,29,17,12,7.20
2015,01,29,17,13,7.10
2015,01,29,17,14,7.10
2015,01,29,17,15,7.00
2015,01,29,17,16,7.00
2015,01,29,17,17,6.90
2015,01,29,17,18,6.90
2015,01,29,17,19,6.80
2015,01,29,17,20,6.80
2015,01,29,17,21,6.80
2015,01,29,17,22,6.70
2015,01,29,17,23,6.70
2015,01,29,17,24,6.60
2015,01,29,17,25,6.60
2015,01,29,17,26,6.50
2015,01,29,17,27,6.50
2015,01,29,17,28,6.40
2015,01,29,17,29,6.40
2015,01,29,17,30,6.30
2015,01,29,17,31,6.30
2015,01,29,17,32,6.30
2015,01,29,17,33,6.30
2015,01,29,17,34,6.30
2015,01,29,17,35,6.20
2015,01,29,17,36,6.20
2015,01,29,17,37,6.20
2015,01,29,17,38,6.10
2015,01,29,17,39,6.10
2015,01,29,17,40,6.10
2015,01,29,17,41,6.00
2015,01,29,17,42,6.00
2015,01,29,17,43,5.90
2015,01,29,17,44,5.90
2015,01,29,17,45,5.90
2015,01,29,17,46,5.90
2015,01,29,17,47,5.80
2015,01,29,17,48,5.80
2015,01,29,17,49,5.80
2015,01,29,17,50,5.80
2015,01,29,17,51,5.70
2015,01,29,17,52,5.70
2015,01,29,17,53,5.70
2015,01,29,17,54,5.70
2015,01,29,17,55,5.70
2015,01,29,17,56,5.60
2015,01,29,17,57,5.60
2015,01,29,17,58,5.60